Wind_Speed
88 87 85 82 80 78 77 75 74 74 75 75 75 73 73 72 70 68 67 65 62 60 59 58 55 53 53 52 51 49 46 45 44 43 41 38 39 41 44 45 44 42 42 42 43 45 46 44 40 38 38 36 33 32 31 30 28 25 25 28 26 22
84 82 80 77 76 76 76 76 76 76 76 75 73 72 71 68 66 64 63 59 57 57 56 55 52 50 50 48 47 47 46 45 45 46 43 41 43 44 45 46 45 43 44 44 46 47 47 43 39 41 40 35 33 32 31 30 27 24 25 28 23 19
83 81 78 77 78 79 78 76 76 76 75 73 72 68 64 61 60 59 58 56 56 55 52 50 49 47 46 45 45 47 47 46 46 46 45 46 46 43 44 46 45 45 46 46 46 47 44 40 41 44 40 34 32 32 31 28 26 23 25 27 21 20
79 79 78 78 77 76 75 74 73 72 71 69 65 61 60 59 57 56 57 57 54 51 49 48 49 49 47 46 46 47 46 45 44 46 48 49 45 43 45 46 46 48 47 45 45 44 41 40 44 43 38 34 32 32 31 28 25 24 25 26 23 24
77 77 78 78 75 73 74 72 70 68 67 65 61 59 60 56 52 54 55 54 52 52 53 52 53 52 51 49 47 45 44 44 45 48 49 47 45 45 46 46 47 47 45 43 42 42 42 43 43 39 35 33 32 32 31 28 26 24 24 25 26 26
78 78 78 78 76 74 73 71 70 68 67 64 60 59 57 53 52 54 52 52 54 56 56 55 54 54 54 52 50 48 48 48 49 49 46 43 43 43 44 45 45 45 43 41 42 43 43 40 39 37 34 32 31 32 31 30 29 27 25 24 26 27
77 75 75 74 74 73 72 72 70 68 66 63 60 58 55 53 54 54 52 53 54 54 55 56 54 53 51 51 52 53 53 53 52 49 45 43 43 43 44 43 43 43 41 40 41 41 39 37 37 36 33 31 31 31 31 32 31 31 29 25 25 27
74 73 73 74 75 74 74 72 70 68 65 63 63 60 54 52 52 53 55 58 59 60 60 59 54 51 50 51 52 52 53 52 50 50 49 48 47 46 44 42 41 42 39 38 38 37 37 37 36 34 33 32 32 31 31 32 32 32 34 30 27 29
73 74 76 77 78 77 75 74 72 70 68 65 65 63 59 59 60 62 64 65 67 67 64 59 54 50 50 51 51 51 50 48 47 50 52 53 52 48 43 42 42 40 37 36 37 37 38 37 34 33 32 32 32 31 31 33 32 32 36 34 31 32
75 76 78 78 77 77 77 76 75 73 72 69 67 66 65 67 68 69 69 69 69 67 63 59 55 52 50 49 50 49 47 45 46 50 52 51 50 46 42 41 40 38 35 35 38 39 38 35 33 32 30 31 31 31 31 32 32 33 36 36 34 34
78 80 80 78 77 78 78 77 77 76 74 72 70 68 69 69 70 71 71 71 69 66 63 60 58 56 54 51 49 49 49 50 51 53 51 47 45 43 40 38 37 36 35 35 37 37 34 32 32 30 28 29 30 30 32 32 32 33 36 37 35 36
82 81 80 80 80 80 79 77 76 76 75 73 71 70 70 70 70 69 69 70 69 67 66 64 61 60 58 55 53 51 50 51 52 52 52 48 44 42 40 38 37 36 34 34 34 31 30 30 29 28 27 28 30 30 31 32 32 33 36 37 36 38
82 81 81 82 82 81 79 77 76 74 73 71 70 69 67 66 65 63 64 65 66 66 65 63 62 61 59 56 53 52 50 49 48 48 51 52 49 45 41 39 38 38 36 34 33 30 28 27 26 26 26 28 30 30 30 30 31 33 36 38 37 38
82 82 82 83 82 80 78 76 74 73 71 69 68 66 63 61 60 60 62 62 62 62 62 61 58 56 54 53 51 50 50 49 45 43 46 48 50 51 49 46 44 41 38 36 33 29 26 24 23 23 24 26 28 29 29 29 30 32 36 39 39 39
78 78 77 75 74 73 72 71 70 69 68 68 67 65 64 63 62 63 63 62 61 61 62 61 51 41 40 46 51 52 50 48 45 42 43 44 46 51 51 48 45 41 38 35 31 28 26 23 21 20 21 23 25 26 27 28 29 31 35 39 42 41
67 66 64 63 62 62 63 63 64 64 64 64 64 63 63 64 65 65 65 64 63 61 61 60 50 40 40 44 48 51 46 39 39 41 44 48 49 47 45 42 41 41 38 34 29 26 26 23 21 20 20 22 25 27 27 27 27 30 34 39 43 44
57 57 56 56 56 56 56 57 58 58 58 58 59 58 58 60 61 62 62 61 61 60 59 59 55 51 51 49 47 47 40 30 35 44 47 51 51 48 46 46 45 43 37 33 27 23 24 25 22 21 22 23 26 29 29 27 27 29 32 37 42 45
52 53 52 52 51 51 51 52 52 52 52 53 53 53 53 54 55 55 55 55 56 56 56 55 55 54 52 50 47 43 36 32 39 50 53 54 53 50 49 49 49 43 35 31 27 23 23 25 23 23 23 24 28 32 32 30 28 28 30 34 39 43
50 50 49 48 48 47 47 48 48 48 48 48 48 49 49 50 50 50 50 50 51 51 51 50 51 51 50 50 49 44 40 41 46 52 56 57 54 51 48 48 47 42 35 30 27 25 24 24 25 25 24 26 31 34 35 32 28 28 29 33 36 39
47 47 46 45 44 44 44 44 45 44 44 44 44 44 45 46 46 46 46 46 47 47 47 47 46 47 47 47 48 46 46 48 50 52 55 57 57 55 50 47 44 38 34 30 27 27 25 24 27 26 25 27 32 36 36 33 29 29 30 32 34 36
45 44 43 42 41 41 41 41 41 41 40 40 41 41 41 42 42 42 42 42 43 44 44 44 43 44 44 44 44 45 46 49 49 50 54 56 57 57 53 47 42 36 33 32 29 29 28 28 29 28 27 28 31 35 37 34 30 31 33 33 34 36
44 42 40 39 38 38 38 38 38 38 37 37 37 37 37 38 38 38 39 39 40 41 41 40 40 40 40 41 41 42 45 49 50 49 52 54 54 54 51 46 41 35 33 34 33 32 32 32 32 31 30 30 31 34 36 35 32 32 34 35 35 36
43 40 38 37 36 35 36 36 36 35 35 35 35 35 34 34 34 34 35 35 36 37 38 37 37 37 38 38 39 40 42 46 49 50 51 52 52 51 48 45 41 36 34 36 36 35 34 33 33 32 32 31 31 32 34 34 33 33 35 36 37 37
42 40 37 36 34 34 34 34 34 33 33 33 33 32 32 31 32 32 32 33 33 34 35 35 35 35 35 36 37 38 40 42 45 48 50 51 52 50 47 45 43 40 38 38 38 37 35 34 34 32 31 31 32 32 33 35 36 36 36 36 37 37
42 40 37 36 34 32 32 32 32 32 31 31 31 31 31 30 30 30 31 31 32 32 33 33 33 33 34 35 35 36 38 40 43 46 48 50 52 51 48 46 45 44 43 43 42 41 38 37 37 34 32 33 34 34 34 36 39 40 39 37 36 37
42 42 39 37 34 32 31 31 30 30 30 29 30 30 30 30 30 30 30 31 31 32 32 32 32 32 33 33 34 35 36 39 41 44 46 48 51 52 50 48 47 46 46 46 46 45 41 39 40 38 35 34 35 36 35 35 37 41 42 40 38 37
43 43 42 39 36 34 32 31 30 30 29 28 29 29 30 30 30 30 31 31 31 31 31 31 31 31 32 32 33 34 35 37 39 42 44 47 50 53 53 51 48 47 47 47 48 47 44 41 42 42 39 36 36 36 36 34 35 39 41 41 41 40
43 44 44 41 38 36 35 33 31 30 29 29 28 28 29 29 30 31 31 31 31 30 30 30 30 30 31 31 32 32 33 35 37 39 42 45 47 50 53 53 52 49 47 47 47 48 46 43 44 45 43 39 37 36 37 37 36 38 40 41 43 43
45 46 46 44 41 39 38 36 34 32 31 30 29 28 28 29 30 30 31 31 31 30 30 30 30 31 31 31 32 32 32 33 35 36 38 41 44 47 51 53 55 53 50 47 47 48 48 46 45 46 46 42 38 38 39 40 39 40 40 41 42 45
47 48 48 46 43 42 41 38 37 35 34 32 31 30 29 29 29 30 31 31 31 30 30 30 30 31 31 32 32 32 32 33 34 36 37 38 41 44 48 51 54 55 54 51 48 48 50 48 45 46 46 43 40 41 41 41 41 42 42 42 43 45
48 49 50 48 45 45 43 41 40 39 37 36 34 33 32 30 30 31 32 32 32 32 31 31 30 30 31 31 32 33 33 34 34 36 38 39 40 42 45 48 52 55 56 56 53 51 52 51 47 45 46 45 43 42 42 41 42 43 43 43 44 45
49 49 50 50 47 46 45 44 43 42 41 40 38 37 35 34 33 32 32 33 33 33 33 32 32 31 31 31 32 33 34 35 36 37 39 40 41 42 43 45 48 52 55 57 57 55 55 54 52 48 48 48 45 44 43 42 42 44 45 44 44 45
49 48 50 50 48 47 47 46 45 44 43 42 41 40 40 38 36 35 34 33 34 34 34 34 34 33 33 32 32 33 34 35 36 37 38 40 41 41 41 42 45 48 52 55 57 57 57 57 57 54 52 51 50 47 46 44 43 44 46 47 47 47
46 46 49 49 48 47 47 47 46 46 45 44 43 43 43 42 40 39 37 36 35 36 36 36 35 35 35 34 34 34 34 35 36 37 38 39 40 41 41 41 42 45 48 51 55 58 59 58 59 59 57 56 54 51 50 49 47 45 47 49 50 50
45 44 47 48 47 48 48 48 47 47 46 45 44 44 44 44 44 42 41 40 38 38 38 38 37 37 37 37 37 37 36 36 37 37 38 39 40 41 41 41 42 43 45 48 51 55 58 60 61 62 61 60 59 57 55 55 53 49 48 49 50 51
48 46 48 48 47 47 47 47 47 47 47 47 46 46 45 45 45 45 44 43 42 41 41 40 40 40 40 39 39 39 39 39 39 39 39 40 41 42 42 43 43 43 44 46 48 50 54 57 60 62 63 63 63 62 59 59 58 55 52 51 51 52
51 50 51 51 49 49 48 47 47 47 47 47 47 46 46 46 46 46 46 45 45 45 45 44 44 43 42 42 42 42 42 42 42 41 41 41 41 42 43 44 44 45 45 46 47 49 50 53 55 58 61 63 64 64 63 62 62 61 59 57 55 54
Wind_Direction
275 276 277 276 275 276 277 278 278 280 283 284 285 285 285 285 285 285 285 285 284 283 284 285 286 285 285 287 286 285 286 286 285 285 285 283 282 282 282 283 283 284 287 289 291 293 294 294 289 288 293 290 286 280 273 270 265 257 250 249 250 240
275 275 274 274 274 276 277 278 279 281 283 283 283 284 285 284 284 285 284 283 282 282 283 283 283 282 284 285 283 284 284 284 283 282 281 281 284 284 282 281 279 283 287 287 289 289 291 290 285 289 291 286 283 277 270 267 260 251 248 247 242 233
274 274 274 273 274 275 276 278 279 280 281 281 282 283 283 283 284 284 282 280 280 281 280 279 279 279 281 282 282 284 284 285 283 279 281 286 287 285 282 278 278 283 286 287 287 287 288 285 283 287 286 281 278 272 267 263 254 248 248 243 227 219
274 274 274 275 274 275 277 278 279 280 279 280 281 281 281 284 286 284 280 279 278 277 276 274 274 275 278 279 279 281 282 281 278 279 285 287 285 282 281 278 279 283 284 284 285 285 285 283 283 284 281 278 273 268 265 258 250 246 244 236 221 222
273 273 273 274 274 276 277 277 278 279 278 279 278 278 280 284 286 283 279 277 274 273 273 272 271 273 277 276 274 275 276 275 275 281 286 283 281 280 279 280 281 283 282 281 282 282 282 282 282 281 278 275 269 265 262 255 246 239 238 231 225 232
271 271 273 274 274 275 276 276 277 278 278 278 276 275 278 280 279 275 272 272 272 272 272 270 271 273 276 273 268 269 270 272 276 281 281 278 279 278 278 281 283 283 282 281 281 280 281 281 280 279 276 270 263 261 258 254 245 234 234 231 230 234
271 272 274 273 273 274 276 277 278 278 278 277 275 275 276 274 270 267 267 269 271 272 272 273 274 273 272 269 266 268 270 272 276 276 275 277 278 277 280 283 283 283 282 282 282 279 279 281 282 279 273 266 258 255 253 252 247 237 231 230 231 231
272 274 273 273 275 276 278 279 279 278 277 275 274 275 273 268 265 265 268 269 270 273 274 275 275 271 268 267 268 270 270 272 272 269 271 278 277 276 279 282 281 282 282 281 279 276 279 283 282 277 271 264 257 250 248 248 246 240 233 227 225 229
270 270 272 274 276 277 278 278 277 277 275 274 273 272 270 267 267 267 268 270 271 273 273 273 272 269 268 269 270 270 269 267 266 266 272 277 275 274 278 280 280 280 281 277 274 276 282 283 279 275 270 264 256 249 245 244 241 239 236 228 219 225
268 270 272 274 276 276 277 277 276 275 274 273 272 271 269 268 267 267 267 268 269 270 271 270 270 269 270 270 268 266 265 262 261 266 272 274 271 272 278 279 276 276 276 273 272 278 282 280 274 271 266 261 255 248 243 242 238 235 236 233 221 222
270 271 273 273 274 274 274 273 273 273 273 272 271 270 269 268 267 266 265 264 265 267 267 267 268 268 269 269 266 264 264 263 262 264 266 268 269 271 275 274 268 267 270 270 274 279 279 274 270 267 262 258 253 246 243 240 237 233 233 234 225 221
272 273 273 273 273 273 272 271 271 271 271 271 271 270 268 267 266 265 264 262 262 263 264 266 267 267 268 268 264 263 265 264 263 261 260 261 266 269 270 268 263 263 266 268 276 281 275 269 265 261 258 255 251 246 242 240 236 232 229 230 224 219
273 273 274 275 274 274 273 271 270 270 270 270 269 269 267 265 264 263 262 262 262 263 264 265 265 267 267 266 263 263 264 263 261 260 258 258 262 263 263 265 263 263 263 267 279 280 270 265 262 257 253 253 251 246 243 241 236 230 227 225 220 216
273 274 275 275 275 273 273 272 271 270 269 268 266 265 264 263 262 261 263 264 265 265 265 265 266 267 267 265 262 263 263 261 260 261 259 259 261 259 258 261 262 262 263 268 276 272 261 260 259 255 251 250 251 248 244 241 237 231 226 221 218 216
273 274 274 274 274 273 273 272 272 270 269 267 264 261 260 260 261 261 263 265 265 265 266 265 265 264 265 264 262 262 263 264 263 262 257 254 256 256 255 257 257 259 264 269 270 261 255 257 256 253 250 249 250 250 247 242 237 234 227 221 219 220
272 272 273 275 275 274 274 273 272 270 269 267 264 262 260 259 259 259 261 262 262 262 262 262 260 256 255 258 261 261 262 265 264 259 254 248 249 253 252 251 252 257 264 266 261 252 252 255 255 255 251 248 247 247 248 245 240 236 229 221 221 223
274 275 276 277 277 276 275 274 272 271 270 268 267 265 263 261 260 260 260 260 260 259 259 259 258 254 252 253 258 258 255 252 250 248 246 244 246 250 249 248 252 256 262 261 250 244 248 251 253 256 252 246 241 242 245 247 244 239 230 223 221 223
280 282 282 282 281 279 277 275 273 272 271 270 269 267 265 264 262 262 261 260 259 258 258 257 256 254 252 251 250 253 248 239 240 241 240 240 244 249 248 248 251 254 258 253 239 235 243 248 249 251 251 244 237 237 242 246 245 239 231 225 222 222
284 285 285 284 282 280 278 277 274 273 272 270 269 267 266 265 263 263 261 260 258 257 256 255 254 253 251 247 244 243 237 232 236 239 240 238 238 245 248 248 249 251 251 244 233 232 240 247 249 249 250 243 233 232 237 243 244 238 232 227 224 223
286 285 284 283 282 280 278 276 274 273 271 269 268 266 265 264 263 261 260 258 257 256 255 253 251 250 249 246 243 240 233 230 235 236 237 236 236 241 247 246 245 245 242 235 230 231 232 239 247 248 247 241 233 229 233 240 241 236 232 230 226 224
285 284 282 281 280 279 277 275 274 272 271 269 267 266 264 263 262 260 258 257 255 254 253 251 249 248 247 245 242 239 233 231 235 234 233 235 236 239 243 243 239 237 235 229 225 226 226 232 240 244 243 240 236 230 232 238 238 233 232 231 228 224
282 282 281 281 280 279 277 276 274 273 271 269 267 265 263 262 261 259 257 255 253 253 252 250 248 246 245 243 240 238 235 233 235 236 233 233 234 236 239 238 233 231 230 225 223 224 226 231 238 242 241 239 238 232 231 236 236 232 231 231 230 227
280 280 280 280 280 280 278 277 275 274 272 270 268 266 264 262 260 258 256 254 253 251 250 249 247 245 243 242 239 236 235 234 235 236 234 232 232 233 234 232 228 227 226 224 224 224 226 228 233 239 238 236 235 232 231 232 231 231 231 230 232 230
279 279 279 280 280 280 278 276 275 274 272 270 269 268 266 263 261 258 256 254 252 250 249 248 246 245 243 241 239 236 235 235 235 235 233 231 231 230 230 228 224 222 221 221 223 225 226 223 224 230 233 233 233 234 235 233 230 230 231 231 233 234
277 278 278 279 280 279 277 275 275 274 272 270 269 268 266 264 261 259 256 254 252 250 248 247 246 244 243 241 239 236 235 234 234 234 232 230 230 229 228 224 221 220 219 219 222 226 226 223 222 226 230 231 232 236 239 237 232 229 231 232 234 235
275 277 277 277 277 277 275 274 274 273 271 269 267 266 264 262 260 258 256 254 252 250 248 247 246 244 243 241 239 237 235 233 233 234 233 231 230 229 228 224 222 221 220 221 225 228 228 226 224 226 229 229 229 233 238 240 235 229 230 233 234 235
273 274 275 274 274 273 272 272 272 272 271 268 266 265 263 261 258 256 254 253 252 252 251 249 248 246 244 243 242 239 237 234 233 233 233 232 230 230 229 225 222 221 221 223 226 228 227 225 224 225 228 229 228 230 235 239 236 231 231 234 235 235
271 272 273 272 272 271 269 269 270 270 270 269 266 264 262 260 258 256 253 251 250 250 250 249 249 248 247 246 245 244 242 238 236 234 234 233 232 231 230 228 224 221 221 223 225 226 225 223 223 224 227 229 229 230 233 235 235 233 232 233 235 235
270 270 270 269 269 268 267 267 267 267 267 267 266 264 261 259 257 255 252 249 247 246 246 246 247 247 248 248 248 247 245 243 240 237 236 235 234 234 233 230 227 224 223 224 224 223 223 223 223 223 225 226 228 230 232 233 234 233 233 232 233 234
269 269 269 268 266 266 265 265 265 265 265 264 263 262 260 258 255 253 251 248 245 243 244 245 246 246 246 246 247 247 247 245 241 238 237 237 237 236 235 233 231 228 226 227 226 224 223 224 223 222 223 223 226 229 230 232 233 234 234 233 232 233
268 269 269 267 266 265 265 264 263 263 263 263 262 260 259 257 254 251 249 247 244 242 242 243 244 244 244 244 243 244 245 245 243 239 236 237 239 239 238 237 235 232 230 230 230 228 226 226 224 222 221 221 224 228 230 231 232 234 234 233 233 233
267 268 268 267 266 265 265 264 263 262 262 261 262 261 260 257 255 252 250 247 244 243 242 242 242 242 243 243 243 242 242 243 243 241 238 237 239 240 240 239 239 238 235 233 233 232 232 232 230 227 224 223 225 225 227 229 231 233 234 234 234 235
265 265 266 266 265 264 264 264 263 263 262 261 261 261 261 259 257 255 252 249 246 244 243 243 243 242 242 243 244 243 242 241 241 242 241 241 241 242 242 241 240 240 239 238 237 236 236 236 236 235 230 228 229 227 225 225 228 232 234 235 235 237
263 263 264 264 264 264 263 263 262 262 262 262 261 260 260 260 259 258 256 253 249 247 246 244 244 244 244 244 244 245 244 243 242 241 241 242 243 243 243 242 241 241 241 240 240 239 239 238 239 240 238 234 234 234 230 228 229 231 232 234 236 237
263 263 263 264 264 263 263 263 263 262 262 262 261 260 260 260 259 259 258 256 254 252 249 247 246 245 245 245 245 245 245 245 244 242 241 240 241 243 244 244 243 242 242 241 241 241 241 240 240 242 242 240 239 239 237 235 235 233 230 231 234 236
264 263 263 263 263 263 264 264 263 263 262 262 261 260 260 260 259 259 259 258 257 256 254 251 249 248 247 247 247 247 246 246 246 244 243 242 241 241 242 244 244 244 243 243 242 242 242 242 241 241 242 242 242 242 241 239 239 239 234 231 231 233
265 265 264 264 264 264 264 263 263 263 262 262 261 261 260 259 259 259 259 259 258 258 256 254 252 251 250 249 248 248 248 247 247 246 245 245 244 243 242 242 243 244 244 244 244 244 244 243 243 242 242 243 243 243 243 241 241 242 241 239 236 234
Height
10763 10763 10763 10762 10762 10761 10762 10762 10762 10761 10761 10760 10760 10760 10760 10761 10761 10761 10760 10757 10753 10751 10748 10746 10746 10744 10743 10743 10742 10745 10746 10747 10748 10749 10750 10750 10750 10749 10747 10746 10746 10745 10744 10744 10744 10744 10744 10744 10744 10743 10744 10744 10744 10745 10745 10746 10748 10749 10749 10747 10750 10754
10757 10757 10756 10756 10756 10755 10755 10754 10755 10755 10755 10755 10754 10755 10755 10755 10756 10754 10752 10750 10747 10746 10743 10741 10740 10739 10738 10739 10739 10740 10741 10741 10742 10742 10743 10743 10745 10744 10743 10741 10741 10741 10740 10740 10740 10740 10740 10740 10740 10739 10740 10740 10741 10741 10742 10744 10745 10747 10746 10744 10748 10751
10750 10750 10749 10750 10749 10748 10748 10747 10748 10749 10749 10749 10749 10750 10750 10751 10752 10749 10745 10743 10743 10742 10738 10735 10734 10734 10734 10735 10735 10736 10736 10736 10736 10736 10736 10737 10738 10739 10738 10737 10736 10736 10736 10735 10735 10735 10736 10736 10735 10735 10736 10737 10737 10738 10739 10741 10742 10743 10742 10741 10746 10748
10743 10743 10742 10741 10742 10741 10741 10741 10742 10742 10742 10743 10744 10745 10745 10747 10747 10742 10738 10737 10737 10736 10733 10729 10729 10730 10731 10732 10732 10732 10731 10731 10730 10730 10730 10731 10732 10733 10732 10732 10731 10730 10730 10730 10730 10730 10731 10731 10731 10731 10732 10732 10733 10733 10735 10737 10738 10740 10738 10740 10744 10745
10737 10735 10734 10734 10735 10735 10734 10734 10736 10736 10736 10737 10739 10740 10742 10745 10743 10734 10730 10729 10728 10728 10727 10725 10726 10727 10727 10728 10728 10727 10726 10726 10726 10725 10725 10726 10727 10728 10727 10727 10726 10725 10725 10725 10725 10725 10725 10726 10726 10726 10727 10728 10728 10729 10731 10733 10735 10736 10735 10738 10741 10742
10729 10728 10727 10727 10728 10728 10727 10728 10730 10730 10731 10733 10734 10736 10738 10742 10738 10728 10724 10721 10720 10720 10720 10721 10723 10725 10724 10723 10723 10723 10722 10722 10722 10721 10721 10721 10721 10722 10722 10722 10721 10720 10720 10720 10721 10720 10719 10721 10722 10722 10722 10723 10724 10725 10726 10728 10732 10732 10731 10735 10738 10739
10720 10721 10720 10718 10719 10721 10721 10722 10723 10725 10725 10726 10728 10730 10731 10732 10727 10720 10718 10715 10713 10715 10715 10717 10721 10722 10720 10718 10718 10717 10718 10718 10718 10717 10715 10716 10717 10717 10718 10718 10716 10715 10716 10715 10716 10715 10715 10716 10717 10717 10718 10719 10719 10721 10723 10724 10727 10728 10727 10731 10735 10736
10713 10711 10709 10709 10711 10713 10715 10715 10717 10718 10720 10720 10720 10722 10722 10719 10715 10713 10713 10711 10710 10711 10712 10715 10716 10715 10713 10713 10714 10713 10713 10713 10714 10712 10711 10711 10713 10714 10714 10713 10711 10711 10712 10711 10710 10710 10710 10711 10712 10712 10713 10714 10715 10717 10719 10720 10723 10724 10723 10726 10730 10732
10708 10704 10702 10703 10705 10707 10708 10709 10710 10711 10714 10715 10714 10715 10715 10712 10709 10708 10708 10708 10707 10707 10709 10710 10710 10709 10708 10710 10710 10709 10709 10710 10710 10708 10707 10708 10709 10710 10711 10709 10707 10707 10707 10706 10706 10706 10706 10706 10707 10708 10709 10710 10711 10713 10714 10716 10719 10720 10720 10723 10726 10727
10701 10699 10698 10699 10700 10701 10701 10701 10702 10704 10706 10708 10710 10711 10710 10707 10704 10703 10703 10703 10702 10701 10703 10704 10703 10703 10704 10706 10705 10705 10706 10706 10706 10704 10704 10705 10706 10706 10706 10703 10702 10702 10703 10702 10702 10702 10701 10702 10702 10703 10704 10705 10706 10708 10710 10712 10714 10717 10717 10719 10722 10724
10692 10692 10692 10693 10694 10695 10695 10695 10695 10696 10697 10699 10702 10703 10702 10699 10697 10697 10697 10697 10697 10696 10697 10698 10697 10697 10699 10701 10701 10701 10701 10701 10701 10700 10700 10700 10700 10701 10700 10697 10696 10697 10699 10699 10699 10698 10697 10698 10698 10699 10701 10701 10702 10704 10705 10707 10710 10712 10713 10715 10718 10720
10683 10684 10683 10684 10685 10686 10688 10689 10690 10690 10690 10691 10692 10693 10692 10689 10689 10689 10688 10689 10690 10690 10691 10693 10693 10691 10692 10694 10695 10695 10696 10696 10696 10696 10696 10695 10694 10695 10694 10693 10692 10692 10694 10696 10696 10695 10694 10693 10694 10695 10697 10698 10698 10700 10701 10703 10706 10708 10709 10711 10714 10716
10673 10673 10674 10673 10674 10676 10678 10680 10682 10683 10684 10685 10683 10681 10678 10677 10678 10679 10678 10679 10681 10683 10684 10686 10687 10686 10685 10686 10687 10687 10689 10691 10692 10692 10691 10691 10689 10688 10688 10688 10688 10687 10689 10692 10692 10692 10691 10690 10690 10691 10693 10694 10695 10696 10698 10700 10702 10704 10706 10708 10710 10712
10665 10665 10664 10664 10664 10666 10667 10669 10671 10673 10676 10678 10677 10672 10667 10666 10667 10668 10669 10670 10672 10673 10675 10678 10682 10682 10680 10678 10679 10680 10682 10686 10689 10689 10689 10687 10683 10680 10681 10683 10684 10684 10686 10688 10688 10688 10688 10687 10686 10687 10689 10691 10692 10693 10695 10697 10699 10701 10702 10704 10707 10709
10657 10657 10656 10657 10656 10656 10658 10659 10660 10662 10665 10667 10669 10668 10664 10662 10662 10662 10662 10663 10665 10666 10665 10669 10676 10681 10680 10676 10674 10675 10679 10683 10685 10684 10683 10679 10674 10672 10675 10678 10681 10682 10683 10684 10685 10684 10684 10684 10684 10684 10686 10688 10689 10690 10692 10694 10696 10697 10699 10701 10703 10706
10651 10650 10649 10650 10649 10649 10649 10650 10651 10652 10654 10655 10657 10660 10660 10659 10657 10658 10658 10659 10660 10661 10660 10662 10670 10676 10676 10672 10670 10671 10677 10684 10683 10676 10670 10666 10665 10667 10671 10674 10676 10678 10680 10681 10681 10681 10681 10681 10681 10682 10683 10685 10686 10687 10688 10690 10692 10693 10695 10697 10700 10703
10644 10643 10643 10643 10643 10643 10642 10643 10644 10644 10645 10646 10647 10649 10651 10651 10650 10651 10652 10653 10653 10654 10654 10655 10660 10664 10664 10664 10664 10668 10675 10680 10675 10664 10658 10656 10659 10662 10666 10669 10670 10673 10676 10677 10678 10679 10679 10678 10678 10678 10679 10681 10681 10683 10684 10686 10688 10689 10691 10693 10696 10698
10637 10636 10636 10636 10636 10636 10636 10636 10636 10637 10638 10638 10639 10640 10641 10641 10641 10643 10644 10644 10644 10645 10646 10648 10650 10652 10655 10656 10659 10665 10669 10668 10661 10654 10652 10653 10655 10657 10660 10664 10665 10669 10671 10673 10674 10675 10674 10673 10674 10674 10675 10677 10678 10679 10681 10682 10684 10686 10688 10689 10691 10694
10631 10631 10631 10630 10631 10630 10630 10630 10630 10631 10631 10631 10632 10632 10633 10633 10633 10635 10636 10636 10636 10636 10638 10640 10641 10642 10646 10648 10652 10658 10660 10655 10649 10646 10647 10649 10652 10652 10655 10658 10662 10665 10667 10669 10670 10670 10670 10670 10669 10670 10672 10674 10675 10676 10677 10678 10680 10682 10684 10686 10688 10690
10626 10626 10626 10626 10626 10625 10625 10624 10624 10625 10625 10625 10626 10626 10626 10626 10627 10628 10629 10629 10629 10629 10631 10633 10634 10635 10637 10640 10643 10648 10650 10646 10642 10641 10642 10644 10647 10649 10650 10654 10658 10661 10663 10665 10666 10666 10667 10666 10665 10666 10669 10669 10670 10672 10673 10675 10677 10678 10680 10682 10684 10687
10621 10621 10622 10622 10621 10621 10620 10619 10619 10619 10619 10620 10620 10620 10621 10620 10621 10622 10622 10623 10622 10623 10624 10626 10628 10629 10630 10633 10635 10639 10641 10640 10636 10635 10637 10640 10643 10644 10647 10650 10654 10658 10660 10662 10663 10663 10663 10662 10662 10664 10666 10666 10666 10668 10671 10672 10674 10675 10677 10678 10681 10683
10617 10618 10619 10618 10618 10617 10616 10614 10614 10614 10614 10615 10614 10615 10616 10616 10616 10617 10617 10617 10617 10617 10618 10620 10622 10623 10625 10626 10629 10632 10633 10633 10631 10631 10633 10636 10638 10640 10643 10647 10651 10654 10656 10657 10658 10659 10659 10660 10661 10662 10663 10664 10664 10666 10668 10670 10671 10672 10674 10675 10677 10680
10613 10615 10615 10614 10614 10613 10612 10611 10610 10610 10610 10609 10610 10610 10611 10611 10611 10612 10612 10613 10613 10613 10614 10615 10617 10618 10620 10621 10623 10626 10627 10627 10626 10627 10629 10632 10634 10636 10639 10643 10648 10650 10651 10652 10653 10654 10655 10658 10659 10660 10661 10662 10663 10664 10666 10668 10669 10669 10670 10671 10674 10676
10609 10611 10612 10611 10611 10610 10609 10607 10606 10607 10606 10605 10606 10606 10606 10607 10607 10607 10608 10608 10609 10609 10610 10611 10612 10614 10615 10616 10618 10620 10622 10622 10622 10622 10625 10628 10630 10633 10636 10639 10643 10645 10645 10646 10647 10648 10651 10654 10656 10657 10658 10660 10661 10662 10663 10664 10666 10666 10667 10668 10670 10672
10605 10606 10608 10608 10608 10608 10606 10605 10604 10603 10603 10603 10602 10602 10602 10602 10603 10603 10603 10604 10605 10605 10606 10607 10608 10609 10611 10612 10614 10615 10617 10617 10618 10618 10621 10624 10626 10629 10632 10634 10637 10639 10640 10641 10642 10644 10647 10650 10651 10652 10654 10656 10657 10658 10659 10660 10661 10662 10663 10665 10667 10669
10602 10602 10603 10604 10604 10605 10603 10602 10601 10600 10600 10600 10599 10599 10599 10599 10599 10599 10600 10600 10600 10601 10602 10603 10604 10606 10607 10608 10609 10611 10612 10613 10614 10615 10617 10620 10622 10624 10627 10629 10632 10634 10636 10637 10639 10641 10644 10646 10646 10647 10648 10650 10651 10653 10654 10655 10656 10657 10658 10661 10663 10665
10599 10597 10598 10599 10600 10601 10600 10599 10599 10598 10597 10597 10597 10596 10596 10596 10596 10596 10597 10597 10597 10598 10599 10600 10601 10602 10604 10605 10606 10607 10609 10610 10611 10612 10614 10616 10618 10620 10622 10624 10627 10630 10632 10633 10635 10636 10639 10641 10641 10641 10643 10645 10646 10648 10649 10650 10652 10653 10655 10657 10659 10662
10595 10593 10593 10595 10595 10596 10596 10596 10596 10595 10595 10594 10594 10594 10593 10593 10593 10593 10594 10594 10595 10596 10596 10598 10599 10600 10601 10602 10603 10605 10606 10607 10608 10609 10611 10612 10614 10616 10617 10620 10623 10625 10627 10629 10631 10632 10634 10635 10636 10637 10638 10640 10642 10643 10644 10646 10647 10649 10651 10653 10655 10658
10591 10589 10588 10589 10590 10591 10591 10592 10592 10592 10592 10591 10591 10591 10591 10590 10590 10591 10591 10592 10593 10594 10594 10596 10596 10597 10599 10600 10601 10602 10603 10604 10605 10607 10608 10609 10611 10612 10614 10616 10618 10620 10622 10624 10627 10628 10630 10631 10633 10633 10634 10637 10638 10639 10640 10642 10643 10645 10647 10649 10651 10653
10586 10584 10582 10584 10585 10585 10586 10587 10588 10588 10588 10588 10588 10588 10588 10588 10588 10588 10588 10589 10590 10591 10592 10593 10594 10595 10596 10597 10598 10599 10600 10601 10602 10604 10605 10606 10608 10609 10610 10612 10613 10616 10618 10619 10622 10624 10626 10628 10629 10630 10632 10635 10636 10636 10637 10638 10639 10640 10642 10645 10646 10647
10581 10579 10576 10578 10580 10580 10581 10582 10583 10583 10583 10583 10584 10584 10585 10585 10585 10585 10585 10586 10587 10588 10588 10589 10590 10591 10592 10594 10595 10596 10597 10598 10599 10600 10602 10603 10604 10605 10606 10608 10609 10611 10613 10615 10617 10619 10620 10623 10625 10626 10629 10632 10633 10633 10634 10635 10636 10637 10639 10641 10642 10643
10576 10574 10571 10572 10574 10574 10575 10577 10577 10578 10578 10579 10579 10580 10580 10581 10581 10582 10582 10583 10584 10584 10585 10586 10586 10587 10588 10589 10590 10592 10593 10594 10595 10596 10598 10599 10600 10601 10603 10604 10605 10607 10609 10611 10612 10614 10615 10617 10619 10621 10624 10627 10629 10630 10631 10632 10633 10634 10636 10637 10638 10640
10570 10569 10567 10567 10568 10569 10569 10570 10571 10572 10573 10574 10574 10575 10575 10576 10577 10578 10579 10580 10580 10581 10581 10582 10583 10583 10583 10584 10585 10587 10588 10589 10591 10592 10594 10595 10596 10598 10599 10600 10601 10602 10604 10606 10608 10610 10611 10612 10614 10616 10619 10621 10623 10625 10626 10628 10629 10630 10632 10633 10635 10636
10565 10565 10562 10562 10563 10563 10563 10564 10566 10567 10568 10568 10569 10569 10570 10571 10572 10573 10574 10576 10576 10577 10578 10578 10579 10579 10579 10580 10581 10582 10583 10584 10586 10587 10589 10590 10592 10593 10594 10596 10597 10598 10600 10601 10603 10605 10606 10608 10608 10610 10612 10615 10616 10619 10621 10622 10624 10626 10627 10629 10631 10632
10560 10560 10557 10557 10558 10558 10558 10559 10560 10561 10562 10563 10563 10564 10564 10565 10566 10567 10569 10570 10571 10572 10573 10573 10574 10574 10575 10575 10576 10577 10578 10579 10580 10582 10584 10585 10587 10588 10590 10591 10592 10594 10595 10596 10598 10599 10600 10602 10603 10604 10606 10608 10610 10612 10614 10616 10618 10620 10622 10624 10626 10627
10553 10554 10552 10551 10552 10553 10553 10554 10554 10555 10556 10557 10557 10558 10559 10559 10560 10561 10563 10564 10565 10566 10567 10568 10569 10569 10570 10570 10571 10572 10573 10574 10575 10577 10578 10580 10581 10583 10584 10586 10587 10589 10590 10591 10593 10594 10595 10596 10598 10599 10600 10602 10603 10605 10607 10609 10611 10613 10616 10618 10620 10622
10547 10548 10546 10546 10547 10548 10548 10549 10548 10549 10550 10550 10551 10552 10552 10553 10554 10555 10556 10557 10559 10560 10561 10562 10563 10563 10564 10565 10566 10567 10568 10569 10570 10572 10573 10575 10576 10577 10579 10580 10582 10583 10585 10586 10587 10588 10590 10591 10592 10593 10594 10596 10597 10598 10600 10602 10604 10606 10608 10611 10613 10616